• In Kazakhstan
  • List of Countries
  • For 7 days
  • Water Temperature
  • Satellite Maps
  • Weather Map
  • News
  • Weather Widgets
  • user-avatar
    Login

    Hourly Weather Shusha

    Today, 23 October, Monday

    Time Temperature Precipitation Wind Pressure Humidity
    00:00 +9°C° 0 mm 2 mps 656 mmHg 52%
    01:00 +9°C° 0 mm 2 mps 656 mmHg 52%
    02:00 +9°C° 0 mm 2 mps 656 mmHg 52%
    03:00 +9°C° 0 mm 2 mps 656 mmHg 50%
    04:00 +9°C° 0 mm 2 mps 656 mmHg 50%
    05:00 +8°C° 0 mm 2 mps 657 mmHg 50%
    06:00 +8°C° 0 mm 2 mps 657 mmHg 51%
    07:00 +10°C° 0 mm 2 mps 658 mmHg 46%
    08:00 +13°C° 0 mm 2 mps 659 mmHg 41%
    09:00 +14°C° 0 mm 2 mps 660 mmHg 36%
    10:00 +15°C° 0 mm 2 mps 660 mmHg 35%
    11:00 +16°C° 0 mm 2 mps 660 mmHg 33%
    12:00 +17°C° 0 mm 3 mps 661 mmHg 32%
    13:00 +17°C° 0 mm 3 mps 661 mmHg 33%
    14:00 +17°C° 0 mm 3 mps 661 mmHg 34%
    15:00 +17°C° 0 mm 3 mps 661 mmHg 35%
    16:00 +14°C° 0 mm 3 mps 661 mmHg 44%
    17:00 +12°C° 0 mm 3 mps 661 mmHg 53%
    18:00 +10°C° 0 mm 3 mps 661 mmHg 62%
    19:00 +10°C° 0 mm 2 mps 661 mmHg 67%
    20:00 +9°C° 0 mm 2 mps 661 mmHg 72%
    21:00 +9°C° 0 mm 2 mps 661 mmHg 77%
    22:00 +9°C° 0.1 mm 2 mps 661 mmHg 78%
    23:00 +8°C° 0.1 mm 2 mps 661 mmHg 79%

    Tomorrow, 24 October, Tuesday

    Time Temperature Precipitation Wind Pressure Humidity
    00:00 +8°C° 0.1 mm 2 mps 661 mmHg 80%
    01:00 +8°C° 0.1 mm 2 mps 661 mmHg 80%
    02:00 +8°C° 0.1 mm 2 mps 661 mmHg 80%
    03:00 +9°C° 0.1 mm 1 mps 661 mmHg 80%
    04:00 +9°C° 0 mm 1 mps 661 mmHg 79%
    05:00 +9°C° 0 mm 1 mps 661 mmHg 79%
    06:00 +8°C° 0 mm 1 mps 661 mmHg 78%
    07:00 +10°C° 0 mm 1 mps 661 mmHg 72%
    08:00 +11°C° 0 mm 1 mps 662 mmHg 67%
    09:00 +12°C° 0 mm 1 mps 662 mmHg 62%
    10:00 +13°C° 0 mm 2 mps 662 mmHg 59%
    11:00 +14°C° 0 mm 2 mps 662 mmHg 55%
    12:00 +15°C° 0 mm 2 mps 662 mmHg 52%
    13:00 +16°C° 0 mm 2 mps 662 mmHg 52%
    14:00 +16°C° 0 mm 2 mps 662 mmHg 52%
    15:00 +16°C° 0 mm 2 mps 661 mmHg 51%
    16:00 +15°C° 0 mm 2 mps 661 mmHg 57%
    17:00 +13°C° 0 mm 1 mps 661 mmHg 63%
    18:00 +12°C° 0 mm 1 mps 661 mmHg 69%
    19:00 +11°C° 0 mm 1 mps 661 mmHg 66%
    20:00 +11°C° 0 mm 1 mps 661 mmHg 64%
    21:00 +11°C° 0 mm 1 mps 662 mmHg 61%
    22:00 +11°C° 0 mm 1 mps 662 mmHg 59%
    23:00 +11°C° 0 mm 1 mps 662 mmHg 57%

    Day after tomorrow, 25 October, Wednesday

    Time Temperature Precipitation Wind Pressure Humidity
    00:00 +11°C° 0 mm 1 mps 662 mmHg 55%
    01:00 +11°C° 0 mm 1 mps 662 mmHg 55%
    02:00 +10°C° 0 mm 1 mps 662 mmHg 54%
    03:00 +9°C° 0 mm 2 mps 662 mmHg 53%
    04:00 +9°C° 0 mm 2 mps 662 mmHg 53%
    05:00 +9°C° 0 mm 2 mps 662 mmHg 53%
    06:00 +9°C° 0 mm 2 mps 662 mmHg 52%
    07:00 +12°C° 0 mm 1 mps 663 mmHg 48%
    08:00 +14°C° 0 mm 1 mps 663 mmHg 43%
    09:00 +16°C° 0 mm 1 mps 664 mmHg 38%
    10:00 +18°C° 0 mm 1 mps 664 mmHg 36%
    11:00 +18°C° 0 mm 2 mps 664 mmHg 34%
    12:00 +19°C° 0 mm 2 mps 664 mmHg 31%
    13:00 +19°C° 0 mm 2 mps 664 mmHg 32%
    14:00 +19°C° 0 mm 2 mps 663 mmHg 32%
    15:00 +19°C° 0 mm 2 mps 663 mmHg 33%
    16:00 +18°C° 0 mm 2 mps 663 mmHg 38%
    17:00 +16°C° 0 mm 1 mps 662 mmHg 43%
    18:00 +13°C° 0 mm 0 mps 662 mmHg 49%
    19:00 +14°C° 0 mm 1 mps 662 mmHg 48%
    20:00 +14°C° 0 mm 1 mps 662 mmHg 47%
    21:00 +13°C° 0 mm 1 mps 662 mmHg 46%
    22:00 +13°C° 0 mm 1 mps 662 mmHg 45%
    23:00 +13°C° 0 mm 2 mps 662 mmHg 43%

    26 October, Thursday

    Time Temperature Precipitation Wind Pressure Humidity
    00:00 +13°C° 0 mm 2 mps 662 mmHg 42%
    01:00 +13°C° 0 mm 2 mps 661 mmHg 41%
    02:00 +13°C° 0 mm 2 mps 661 mmHg 41%
    03:00 +12°C° 0 mm 2 mps 661 mmHg 40%
    04:00 +12°C° 0 mm 2 mps 661 mmHg 40%
    05:00 +12°C° 0 mm 2 mps 660 mmHg 40%
    06:00 +12°C° 0 mm 2 mps 660 mmHg 39%
    07:00 +14°C° 0 mm 2 mps 661 mmHg 35%
    08:00 +16°C° 0 mm 2 mps 661 mmHg 32%
    09:00 +19°C° 0 mm 1 mps 662 mmHg 28%
    10:00 +20°C° 0 mm 2 mps 661 mmHg 26%
    11:00 +21°C° 0 mm 3 mps 661 mmHg 24%
    12:00 +22°C° 0 mm 3 mps 661 mmHg 22%
    13:00 +22°C° 0 mm 3 mps 661 mmHg 22%
    14:00 +21°C° 0 mm 3 mps 660 mmHg 22%
    15:00 +21°C° 0 mm 3 mps 660 mmHg 22%
    16:00 +19°C° 0 mm 2 mps 660 mmHg 27%
    17:00 +18°C° 0 mm 1 mps 659 mmHg 31%
    18:00 +15°C° 0 mm 1 mps 659 mmHg 36%
    19:00 +14°C° 0 mm 1 mps 659 mmHg 37%
    20:00 +14°C° 0 mm 1 mps 660 mmHg 38%
    21:00 +13°C° 0 mm 1 mps 660 mmHg 40%
    22:00 +12°C° 0 mm 1 mps 660 mmHg 42%
    23:00 +12°C° 0 mm 1 mps 660 mmHg 44%

    27 October, Friday

    Time Temperature Precipitation Wind Pressure Humidity
    00:00 +11°C° 0 mm 1 mps 660 mmHg 46%
    01:00 +11°C° 0 mm 1 mps 660 mmHg 49%
    02:00 +10°C° 0 mm 1 mps 660 mmHg 51%
    03:00 +10°C° 0 mm 1 mps 660 mmHg 53%
    04:00 +10°C° 0 mm 1 mps 660 mmHg 56%
    05:00 +9°C° 0 mm 1 mps 661 mmHg 59%
    06:00 +9°C° 0 mm 1 mps 661 mmHg 62%
    07:00 +9°C° 0 mm 2 mps 661 mmHg 60%
    08:00 +10°C° 0 mm 2 mps 662 mmHg 57%
    09:00 +13°C° 0 mm 2 mps 663 mmHg 55%
    10:00 +14°C° 0 mm 2 mps 663 mmHg 53%
    11:00 +13°C° 0 mm 3 mps 662 mmHg 51%
    12:00 +14°C° 0 mm 3 mps 662 mmHg 49%
    13:00 +14°C° 0 mm 3 mps 662 mmHg 51%
    14:00 +13°C° 0 mm 3 mps 661 mmHg 53%
    15:00 +13°C° 0 mm 3 mps 661 mmHg 55%
    16:00 +12°C° 0 mm 3 mps 661 mmHg 61%
    17:00 +12°C° 0 mm 2 mps 661 mmHg 67%
    18:00 +10°C° 0 mm 2 mps 660 mmHg 74%
    19:00 +9°C° 0 mm 2 mps 660 mmHg 75%
    20:00 +10°C° 0 mm 1 mps 660 mmHg 76%
    21:00 +10°C° 0 mm 1 mps 660 mmHg 77%
    22:00 +9°C° 0 mm 1 mps 660 mmHg 78%
    23:00 +9°C° 0 mm 1 mps 660 mmHg 78%

    28 October, Saturday

    Time Temperature Precipitation Wind Pressure Humidity
    00:00 +9°C° 0 mm 1 mps 659 mmHg 78%
    01:00 +8°C° 0 mm 1 mps 659 mmHg 77%
    02:00 +8°C° 0 mm 1 mps 659 mmHg 76%
    03:00 +8°C° 0 mm 1 mps 659 mmHg 75%
    04:00 +8°C° 0 mm 1 mps 659 mmHg 73%
    05:00 +8°C° 0 mm 1 mps 659 mmHg 70%
    06:00 +8°C° 0 mm 1 mps 658 mmHg 68%
    07:00 +10°C° 0 mm 1 mps 659 mmHg 61%
    08:00 +10°C° 0 mm 2 mps 659 mmHg 55%
    09:00 +13°C° 0 mm 2 mps 660 mmHg 49%
    10:00 +15°C° 0 mm 2 mps 660 mmHg 44%
    11:00 +16°C° 0 mm 3 mps 659 mmHg 40%
    12:00 +17°C° 0 mm 3 mps 659 mmHg 36%
    13:00 +17°C° 0 mm 3 mps 659 mmHg 36%
    14:00 +17°C° 0 mm 3 mps 659 mmHg 36%
    15:00 +17°C° 0 mm 3 mps 658 mmHg 35%
    16:00 +16°C° 0 mm 2 mps 658 mmHg 39%
    17:00 +15°C° 0 mm 1 mps 658 mmHg 43%
    18:00 +14°C° 0 mm 1 mps 658 mmHg 47%
    19:00 +14°C° 0 mm 1 mps 657 mmHg 48%
    20:00 +14°C° 0 mm 1 mps 657 mmHg 49%
    21:00 +13°C° 0 mm 1 mps 657 mmHg 50%
    22:00 +13°C° 0 mm 2 mps 657 mmHg 51%
    23:00 +13°C° 0 mm 2 mps 657 mmHg 51%

    29 October, Sunday

    Time Temperature Precipitation Wind Pressure Humidity
    00:00 +13°C° 0 mm 2 mps 656 mmHg 52%
    01:00 +13°C° 0.1 mm 2 mps 656 mmHg 52%
    02:00 +13°C° 0.1 mm 2 mps 656 mmHg 52%
    03:00 +13°C° 0.1 mm 2 mps 656 mmHg 52%
    04:00 +13°C° 0 mm 2 mps 656 mmHg 53%
    05:00 +13°C° 0 mm 2 mps 656 mmHg 53%
    06:00 +13°C° 0 mm 2 mps 656 mmHg 54%
    07:00 +14°C° 0 mm 2 mps 656 mmHg 50%
    08:00 +15°C° 0 mm 2 mps 657 mmHg 47%
    09:00 +16°C° 0 mm 2 mps 657 mmHg 43%
    10:00 +17°C° 0 mm 3 mps 657 mmHg 38%
    11:00 +19°C° 0 mm 3 mps 657 mmHg 33%
    12:00 +20°C° 0 mm 4 mps 657 mmHg 28%
    13:00 +20°C° 0 mm 4 mps 657 mmHg 28%
    14:00 +20°C° 0 mm 3 mps 656 mmHg 28%
    15:00 +20°C° 0 mm 3 mps 656 mmHg 28%
    16:00 +18°C° 0 mm 2 mps 656 mmHg 33%
    17:00 +16°C° 0 mm 2 mps 655 mmHg 37%
    18:00 +14°C° 0 mm 1 mps 655 mmHg 42%
    19:00 +14°C° 0 mm 1 mps 655 mmHg 43%
    20:00 +14°C° 0 mm 1 mps 655 mmHg 43%
    21:00 +13°C° 0 mm 2 mps 655 mmHg 44%
    22:00 +13°C° 0 mm 2 mps 655 mmHg 45%
    23:00 +13°C° 0 mm 2 mps 654 mmHg 45%
    Show more